Probability
0 0 0 0 0 0 0 0 0 0 0 1 3 5 4 2 0 0 0 2 3 2 0 0 0 0 0 0 0 0 0 0 0 0 0 0 0 0 0 0 0 0 0 0 0 0 0 0 0
0 0 0 0 0 0 0 0 0 0 0 1 4 7 6 2 0 0 0 1 1 1 0 0 0 0 0 0 0 0 0 0 0 0 0 0 0 0 1 1 1 0 0 0 0 0 0 0 0
0 0 0 0 0 0 0 0 0 0 0 1 2 4 3 1 0 0 0 0 0 0 0 0 0 0 0 0 0 0 0 0 1 2 3 2 1 2 4 4 2 1 0 0 0 0 0 0 0
0 0 0 0 0 0 0 0 0 0 0 0 1 1 0 1 3 3 1 0 0 0 0 0 0 0 0 0 1 1 0 2 6 9 9 5 3 3 5 5 3 2 2 3 2 1 1 1 0
0 0 0 0 0 0 0 0 0 0 0 1 3 4 3 5 9 7 3 0 0 0 0 0 1 1 0 0 1 1 2 8 16 21 16 7 3 2 3 3 3 5 6 7 5 2 2 1 1
0 0 0 0 0 0 0 0 0 0 0 1 6 9 9 11 13 8 4 2 0 0 0 0 1 1 0 0 0 0 3 11 21 24 17 6 1 1 0 1 2 5 7 7 4 1 1 1 0
0 0 0 0 0 0 0 0 0 0 0 1 7 12 12 14 13 10 9 5 2 0 0 1 1 1 0 0 0 0 2 6 12 15 10 3 0 0 0 0 1 2 3 2 1 0 0 0 0
0 0 0 0 0 0 0 0 0 0 0 1 6 9 11 16 22 25 23 14 6 2 1 1 0 0 0 0 1 1 1 2 5 7 5 2 0 0 0 0 0 0 0 0 0 0 0 0 0
0 0 0 0 0 0 0 0 0 0 0 3 9 11 13 23 36 47 46 30 15 6 2 1 0 0 0 0 1 2 1 2 4 5 4 1 0 0 0 0 0 0 0 0 0 0 0 0 0
0 0 0 0 0 0 0 0 0 0 1 10 23 24 22 31 45 57 59 44 20 6 2 1 0 0 0 0 1 1 1 1 1 2 2 1 0 0 0 0 0 0 0 0 0 0 0 0 0
0 0 0 0 0 0 0 0 0 0 1 14 31 33 26 31 43 53 55 42 19 5 1 1 0 0 0 0 0 0 0 0 0 0 0 0 0 0 0 0 0 0 0 0 0 0 0 0 0
0 0 0 0 0 0 0 0 0 0 2 13 26 27 23 25 32 41 47 40 23 8 2 1 1 0 0 0 0 0 0 0 0 0 0 0 0 0 0 0 0 0 0 0 0 0 0 0 0
0 0 0 0 0 0 0 0 0 0 5 14 21 18 14 14 19 32 48 54 41 21 7 4 3 2 1 0 0 0 0 0 0 0 0 0 0 0 0 0 0 0 0 0 0 0 0 0 0
0 0 0 0 0 0 0 0 0 1 6 14 15 9 5 7 17 36 58 68 58 33 17 14 14 9 4 1 0 0 0 0 0 0 0 0 0 0 0 0 0 0 0 0 0 0 0 0 0
0 0 0 0 0 0 0 0 0 0 3 7 7 4 2 7 23 46 65 72 57 34 24 27 29 20 8 1 0 0 0 0 0 0 0 0 0 0 0 0 0 0 0 0 0 0 0 0 0
0 0 0 0 0 0 0 0 0 0 0 2 3 5 6 11 27 51 68 64 44 28 25 30 33 24 9 2 1 1 0 0 0 0 0 0 0 0 0 0 0 0 0 0 0 0 0 0 0
0 0 0 0 0 0 0 0 0 0 1 1 4 9 13 16 26 45 57 49 32 23 22 24 24 17 7 2 2 1 0 0 0 0 0 0 0 0 0 0 0 0 0 0 0 0 0 0 0
0 0 0 0 0 0 0 0 0 1 2 3 8 17 24 23 22 30 35 29 21 17 17 19 17 11 4 1 1 1 0 0 0 0 0 0 0 0 0 0 0 0 0 0 0 0 0 0 0
0 0 0 0 0 0 0 0 0 2 4 10 24 38 45 41 32 24 18 13 10 10 12 15 14 9 3 1 0 0 0 0 0 0 0 0 0 0 0 0 0 0 0 0 0 0 0 0 0
0 0 0 0 0 0 0 0 0 3 10 28 53 67 67 62 53 37 19 7 3 4 6 9 8 5 2 1 0 0 0 0 0 0 0 0 0 0 0 0 0 0 0 0 0 0 0 0 0
0 0 0 0 0 0 0 0 1 7 24 53 77 82 74 67 60 47 25 7 0 1 2 3 3 1 1 0 0 0 0 0 0 0 0 0 0 0 0 0 0 0 0 0 0 0 0 0 0
0 0 0 0 0 0 0 0 2 12 37 66 81 75 61 50 43 34 19 5 0 0 0 1 1 0 0 0 0 0 0 0 0 0 0 0 0 0 0 0 0 0 0 0 0 0 0 0 0
0 0 0 0 0 0 0 0 1 13 40 66 71 57 37 23 18 13 7 2 0 0 0 0 0 0 0 0 0 0 0 0 0 0 0 0 0 0 0 0 0 0 0 0 0 0 0 0 0
0 0 0 0 0 0 0 0 0 10 38 64 62 38 17 6 3 2 1 0 0 0 0 0 0 0 0 0 0 0 0 0 0 0 0 0 0 0 0 0 0 0 0 0 0 0 0 0 0
0 0 0 0 0 0 0 0 0 8 35 57 46 20 5 1 1 0 0 0 0 0 0 0 0 0 0 0 0 0 0 0 0 0 0 0 0 0 0 0 0 0 0 0 0 0 0 0 0
0 0 0 0 0 0 0 0 1 9 28 36 21 6 1 0 0 0 0 0 0 0 0 0 0 0 0 0 0 0 0 0 0 0 0 0 0 0 0 0 0 0 0 0 0 0 0 0 0
0 0 0 0 0 0 0 0 1 8 17 14 5 0 0 0 0 0 0 0 0 0 0 0 0 0 0 0 0 0 0 0 0 0 0 0 0 0 0 0 0 0 0 0 0 0 0 0 0
0 0 0 0 0 0 0 0 1 7 11 7 1 0 0 0 0 0 0 0 0 0 0 0 0 0 0 0 0 0 0 0 0 0 0 0 0 0 0 0 0 0 0 0 0 0 0 0 0
0 0 0 0 0 0 0 0 1 7 11 6 1 0 0 0 0 0 0 0 0 0 0 0 0 0 0 0 0 0 0 0 0 0 0 0 0 0 0 0 0 0 0 0 0 0 0 0 0
0 0 0 0 0 0 0 0 2 6 8 4 1 0 0 0 0 0 0 0 0 0 0 0 0 0 0 0 0 0 0 0 0 0 0 0 0 0 0 0 0 0 0 0 0 0 0 0 0
Wind_Speed
3 4 0 4 7 6 3 6 4 3 3 2 4 9 8 5 5 6 4 12 13 10 7 10 12 12 11 10 10 10 10 10 10 10 10 9 9 8 7 7 7 7 8 9 8 8 7 6 5
2 2 3 5 6 2 6 7 6 5 5 6 8 10 9 8 10 12 7 11 13 10 7 9 12 11 12 11 11 10 11 11 10 10 9 9 9 9 8 8 8 8 8 8 7 6 5 3 2
2 1 5 5 3 5 5 6 6 1 5 6 5 5 7 7 8 8 10 14 12 9 7 10 13 12 12 12 12 11 12 12 11 10 9 8 7 8 8 9 10 10 9 9 8 6 5 3 2
2 4 5 4 4 8 9 11 5 3 4 4 7 8 5 3 6 14 16 15 13 10 8 10 14 13 12 13 13 12 13 12 11 10 9 8 7 6 7 9 10 10 8 8 7 6 5 4 2
3 4 3 1 7 8 11 10 5 6 5 6 11 8 5 5 18 20 16 14 13 9 6 8 12 12 11 12 12 11 11 10 10 9 8 7 7 6 6 8 9 9 8 8 7 5 4 3 1
3 4 2 4 6 6 6 5 5 9 9 8 10 8 5 9 18 18 16 13 12 9 6 6 11 12 11 11 11 10 10 10 9 8 7 6 5 5 5 6 7 8 7 7 5 3 2 0 2
3 2 2 5 7 4 5 5 8 10 9 7 9 9 7 9 14 16 14 14 12 10 7 5 6 8 10 10 9 8 8 8 8 7 6 5 4 4 5 5 7 7 6 5 3 2 2 1 2
4 2 3 4 7 2 6 6 7 11 7 7 8 12 11 14 14 15 13 11 11 8 7 6 6 5 5 6 8 8 7 7 7 6 6 5 4 4 4 3 5 6 6 5 4 5 4 3 4
3 1 4 5 6 2 4 7 5 5 9 5 5 8 13 20 17 17 13 9 8 7 5 6 6 5 5 5 6 7 8 8 7 6 7 5 2 1 2 4 6 7 7 6 6 6 5 4 5
5 4 9 7 6 1 0 4 7 7 9 5 7 10 16 18 18 18 16 12 8 5 4 5 5 6 6 5 4 3 3 4 4 4 5 4 3 3 3 5 7 7 7 6 6 6 6 5 3
5 8 9 9 10 2 3 3 4 11 7 12 18 19 18 16 18 18 15 15 11 7 6 6 7 7 6 4 4 3 2 3 3 4 4 3 3 2 2 1 2 3 4 2 3 4 3 3 3
5 10 9 9 5 2 2 2 3 8 12 15 22 24 18 17 17 16 15 13 9 7 7 8 8 7 6 5 4 3 3 3 3 4 5 4 3 3 3 2 2 3 2 2 2 2 4 4 5
5 9 9 8 3 0 2 3 1 3 10 13 17 18 16 15 14 14 15 14 12 11 11 11 10 9 7 5 4 4 4 4 4 3 3 4 3 3 3 3 3 4 3 3 2 3 3 4 4
7 8 11 9 2 1 3 4 3 2 14 15 15 13 12 14 16 16 18 18 18 18 17 14 12 8 6 4 3 3 3 3 3 2 3 3 3 2 2 2 2 2 2 3 3 3 2 3 3
3 6 10 6 1 1 4 4 4 3 13 13 12 12 13 13 17 19 20 21 20 16 12 9 8 6 6 5 4 3 2 3 2 2 3 3 3 3 2 2 1 1 2 3 2 1 1 2 3
6 5 6 11 4 2 3 6 6 6 15 12 13 14 13 10 12 14 16 14 11 7 4 4 5 7 7 6 6 4 4 3 2 2 2 3 4 4 4 3 3 4 2 2 2 3 3 3 3
5 3 6 11 7 2 4 7 2 12 20 16 16 15 14 11 9 8 9 7 5 5 6 5 5 7 7 7 6 6 5 5 4 4 5 6 7 6 4 3 3 4 4 3 3 3 2 3 4
6 5 7 10 9 4 5 7 7 11 22 18 17 16 15 13 8 6 6 7 7 7 7 7 7 7 7 5 5 5 6 5 6 6 6 7 6 6 5 3 4 4 3 3 2 2 2 1 3
7 8 11 15 13 5 5 8 12 14 19 17 14 13 13 10 6 5 6 7 7 7 8 8 8 6 5 4 4 4 4 4 4 5 6 6 7 7 5 4 5 5 4 4 5 4 4 4 4
8 11 14 14 7 2 6 8 7 11 15 16 16 14 13 11 9 8 6 6 8 9 10 10 10 9 7 5 3 3 4 3 2 3 5 7 7 8 7 7 5 5 5 6 7 5 4 3 4
12 11 13 13 4 4 7 7 6 8 12 15 15 15 12 12 10 9 10 9 10 11 10 10 10 10 9 7 5 5 4 3 3 4 4 6 7 7 6 6 4 4 4 4 5 6 5 3 3
12 15 12 10 3 4 6 6 5 7 10 13 15 14 13 11 10 10 11 11 12 11 11 12 11 11 9 8 8 7 5 3 3 2 3 4 6 5 5 5 5 5 5 5 5 4 3 3 3
13 15 10 6 4 2 2 7 7 8 10 12 14 15 13 11 11 11 11 12 11 11 11 10 11 10 8 8 8 7 5 3 3 4 5 5 5 6 7 7 6 5 4 4 3 3 3 1 1
11 8 2 4 4 3 6 7 9 12 18 20 17 16 15 12 12 12 11 10 10 10 10 10 10 8 7 7 6 6 6 6 6 5 5 5 4 5 6 6 4 4 3 2 2 2 2 2 3
4 3 1 4 4 7 6 5 10 12 18 23 22 19 16 14 13 14 12 10 9 10 9 9 10 8 6 7 7 7 7 7 7 5 5 5 4 4 5 5 4 3 3 3 4 4 4 4 4
6 10 10 9 8 8 5 5 7 8 16 17 18 17 17 14 12 13 11 10 9 9 8 8 8 7 7 7 7 7 7 5 4 5 3 3 2 2 3 3 3 4 4 4 4 3 4 4 4
7 7 10 9 6 3 2 2 6 12 19 21 21 19 18 15 15 14 12 10 9 8 7 7 7 7 6 7 7 6 5 5 4 3 2 1 2 3 4 4 4 4 4 4 4 3 4 5 4
10 9 7 7 7 5 4 6 10 16 20 21 21 20 18 16 15 13 11 10 10 8 7 7 7 5 5 5 5 4 4 3 3 2 3 3 3 3 4 5 5 5 4 3 3 3 3 4 5
3 4 6 6 6 8 6 10 12 24 22 21 18 18 19 17 15 13 11 11 9 7 7 6 6 5 5 4 3 3 2 2 1 2 3 4 4 4 4 4 5 4 2 1 2 3 5 6 7
7 8 9 6 6 6 6 11 7 18 15 18 19 20 18 16 14 14 13 11 9 7 6 5 5 5 4 3 2 2 1 2 2 3 4 4 5 5 4 4 4 3 2 2 2 4 6 7 9
Wind_Direction
287 272 196 51 52 47 285 259 222 211 219 196 122 119 115 96 125 134 102 118 122 130 139 130 125 123 120 124 129 129 132 131 129 127 126 124 124 122 115 108 109 113 116 121 125 130 135 143 148
293 289 56 56 77 38 275 244 216 198 159 146 112 101 87 72 85 105 120 126 129 135 136 131 127 126 124 123 129 132 134 134 130 127 127 130 134 134 132 129 129 130 131 131 131 135 142 157 167
274 66 78 71 108 188 257 256 237 206 138 148 103 65 75 102 107 115 140 140 133 131 130 134 132 133 130 126 130 137 139 139 137 134 135 139 143 145 144 142 142 142 145 148 148 153 160 179 206
39 46 58 86 229 232 238 252 235 139 116 111 110 73 49 79 106 127 142 139 130 130 135 139 138 137 133 128 130 139 143 143 143 143 143 143 144 149 153 153 151 146 147 150 152 152 145 137 114
69 79 61 254 232 240 235 231 196 141 124 103 97 90 61 67 114 132 140 137 129 132 132 138 138 134 131 128 129 135 142 143 143 142 140 139 138 145 159 161 155 149 148 142 140 142 143 136 74
55 69 63 275 262 268 239 195 148 119 120 120 107 101 93 114 131 141 138 129 126 126 122 128 135 133 130 127 127 133 138 139 140 139 136 139 144 150 156 158 156 151 144 140 139 148 169 121 350
115 92 251 271 295 282 215 182 154 150 148 142 124 106 131 144 147 141 132 125 124 125 123 116 123 131 133 130 131 137 138 139 144 147 145 148 150 156 164 170 167 155 142 139 147 202 228 260 304
161 71 296 282 283 246 176 159 162 148 131 129 124 135 163 169 147 130 123 121 125 125 127 120 111 110 116 129 144 153 154 154 156 155 157 163 164 170 169 153 167 166 167 178 203 220 230 254 292
148 84 268 259 279 301 154 149 160 115 126 133 129 154 160 156 140 128 123 119 125 123 121 119 121 129 134 145 161 167 170 168 162 160 167 164 170 200 194 195 191 184 187 200 215 230 251 275 300
140 181 235 225 274 299 251 164 137 102 117 106 95 111 142 150 145 141 140 138 136 136 134 133 145 158 165 165 156 170 172 169 167 176 173 169 183 205 205 213 192 192 204 213 224 244 263 274 291
196 215 253 269 255 138 33 342 95 125 152 161 149 148 153 150 147 146 148 150 151 155 167 168 173 176 176 166 165 174 171 171 192 203 182 168 174 187 184 204 226 236 234 236 259 262 266 270 273
250 268 265 253 246 84 79 2 86 159 185 172 158 156 155 148 147 142 145 150 143 159 191 188 188 187 185 169 175 183 185 190 194 200 182 172 182 184 191 203 217 242 244 234 261 267 269 278 278
267 272 289 264 242 172 31 359 33 130 161 155 152 150 150 140 132 132 137 140 149 167 189 193 191 189 181 164 177 184 190 188 171 161 172 178 179 189 211 225 228 243 241 230 249 261 263 264 267
263 290 304 295 256 131 49 341 30 118 149 149 145 139 128 130 133 137 140 145 158 175 182 186 182 177 158 143 144 160 163 146 133 143 135 113 124 147 174 205 224 245 222 202 204 209 223 251 268
306 332 322 308 271 163 66 352 324 136 151 141 124 106 109 133 140 149 155 157 166 175 176 169 157 134 118 105 89 66 67 107 125 130 106 97 103 102 77 47 30 302 235 213 214 238 334 330 332
10 10 315 294 279 263 124 250 282 101 135 126 116 110 113 121 138 152 158 159 163 161 134 104 124 104 92 87 81 71 65 65 61 55 47 47 43 47 46 33 16 0 356 347 350 2 1 350 337
359 332 289 290 288 285 164 222 212 113 121 125 128 125 124 127 132 142 148 143 110 69 61 57 76 92 91 91 87 81 74 60 49 45 35 32 32 38 55 52 37 35 42 30 15 8 354 327 320
257 275 283 282 287 288 228 203 133 121 118 124 131 132 134 142 146 131 108 80 62 59 63 68 76 86 93 88 80 71 63 54 49 46 39 40 37 35 48 51 37 37 39 15 2 348 333 322 321
237 265 275 277 283 292 223 149 129 128 121 126 128 129 128 128 125 105 85 76 72 66 69 69 74 67 72 69 67 65 56 41 37 33 30 32 32 31 39 26 20 19 21 8 0 357 353 1 357
248 261 271 282 290 115 105 83 97 128 131 134 131 126 123 118 119 120 109 93 90 89 83 73 70 65 61 65 67 76 83 64 52 26 27 28 30 29 40 37 32 24 21 20 17 16 2 357 17
254 241 250 255 292 70 90 49 61 91 109 116 120 123 122 122 118 111 108 106 103 98 94 90 82 74 66 64 64 57 54 44 27 19 21 19 32 40 48 46 45 38 45 37 31 31 28 2 1
257 255 238 241 216 200 146 145 172 137 122 128 132 133 130 124 113 104 105 106 103 101 97 90 85 80 73 71 73 72 69 58 22 12 19 17 28 33 38 32 33 36 43 46 38 49 34 19 349
241 253 234 229 238 239 144 145 204 165 153 156 148 141 135 129 121 112 108 108 104 99 93 88 84 78 74 73 75 73 64 48 21 16 17 9 11 28 38 44 42 38 36 36 30 23 17 355 301
241 240 317 46 68 282 232 173 204 198 179 162 154 146 140 132 121 114 109 104 97 91 87 84 81 73 69 72 72 76 72 57 42 27 17 11 13 28 33 40 41 36 23 8 353 345 359 341 317
258 187 336 315 319 255 245 214 225 204 171 160 153 149 144 139 130 123 116 106 98 88 85 84 82 71 62 63 60 64 67 61 51 40 36 30 16 7 2 11 9 4 351 344 339 334 335 326 317
238 164 175 205 232 268 308 261 293 148 139 141 143 143 142 141 133 127 123 118 108 96 89 84 79 68 57 58 57 57 58 56 48 44 42 27 354 328 339 350 349 338 330 333 335 326 323 326 318
224 200 184 165 185 200 261 72 28 108 135 146 150 148 147 145 134 130 127 121 109 98 87 83 79 68 62 72 77 67 65 65 57 49 38 4 322 322 341 333 330 323 327 335 344 340 332 331 325
211 180 120 139 171 224 237 201 184 173 165 160 156 150 145 141 135 135 129 115 103 98 92 82 80 80 80 88 89 88 74 68 58 31 354 326 313 316 323 324 318 317 329 344 359 336 327 329 309
224 163 133 138 160 173 215 248 205 186 172 160 150 144 142 141 139 133 122 112 109 103 93 83 82 83 83 96 96 84 65 47 14 333 316 314 312 313 309 304 306 308 307 321 350 323 317 313 306
201 196 158 165 214 176 176 252 242 173 153 148 145 145 146 143 135 128 122 117 111 103 95 90 93 91 93 102 96 64 21 351 339 322 315 318 319 317 305 297 297 278 217 217 271 300 305 301 306